• Em Portugal
  • Lista de países
  • Para 7 dias
  • Temperatura da água
  • Mapas de satélite
  • Mapa do tempo
  • Widgets de tempo
  • user-avatar
    Iniciar Sessão

    Previsão horária em Zandzhan

    Hoje, 18 Julho, Quarta-feira

    Tempo Temperatura Precipitação Vento Pressão Humidade
    00:00 +22°C° 0 mm 3 m/s 613 mmHg 71%
    01:00 +21°C° 0 mm 3 m/s 613 mmHg 73%
    02:00 +21°C° 0 mm 3 m/s 613 mmHg 75%
    03:00 +20°C° 0 mm 3 m/s 613 mmHg 77%
    04:00 +20°C° 0 mm 3 m/s 613 mmHg 77%
    05:00 +20°C° 0 mm 3 m/s 614 mmHg 77%
    06:00 +20°C° 0 mm 3 m/s 614 mmHg 77%
    07:00 +22°C° 0 mm 3 m/s 614 mmHg 65%
    08:00 +25°C° 0 mm 3 m/s 615 mmHg 53%
    09:00 +27°C° 0 mm 4 m/s 615 mmHg 42%
    10:00 +29°C° 0 mm 5 m/s 616 mmHg 34%
    11:00 +33°C° 0 mm 5 m/s 616 mmHg 27%
    12:00 +35°C° 0 mm 6 m/s 617 mmHg 20%
    13:00 +36°C° 0 mm 6 m/s 617 mmHg 17%
    14:00 +38°C° 0 mm 6 m/s 616 mmHg 15%
    15:00 +39°C° 0 mm 6 m/s 616 mmHg 13%
    16:00 +37°C° 0 mm 5 m/s 616 mmHg 15%
    17:00 +36°C° 0 mm 5 m/s 616 mmHg 17%
    18:00 +35°C° 0 mm 5 m/s 615 mmHg 20%
    19:00 +34°C° 0 mm 4 m/s 615 mmHg 25%
    20:00 +32°C° 0 mm 4 m/s 615 mmHg 31%
    21:00 +30°C° 0 mm 3 m/s 615 mmHg 36%
    22:00 +29°C° 0 mm 3 m/s 615 mmHg 38%
    23:00 +28°C° 0 mm 2 m/s 615 mmHg 41%

    Amanhã, 19 Julho, Quinta-feira

    Tempo Temperatura Precipitação Vento Pressão Humidade
    00:00 +27°C° 0 mm 2 m/s 614 mmHg 43%
    01:00 +26°C° 0 mm 2 m/s 614 mmHg 42%
    02:00 +26°C° 0 mm 2 m/s 614 mmHg 41%
    03:00 +25°C° 0 mm 1 m/s 614 mmHg 40%
    04:00 +26°C° 0 mm 1 m/s 614 mmHg 37%
    05:00 +26°C° 0 mm 2 m/s 614 mmHg 35%
    06:00 +26°C° 0 mm 2 m/s 615 mmHg 32%
    07:00 +29°C° 0 mm 3 m/s 616 mmHg 26%
    08:00 +32°C° 0 mm 4 m/s 616 mmHg 20%
    09:00 +34°C° 0 mm 4 m/s 617 mmHg 15%
    10:00 +35°C° 0 mm 4 m/s 617 mmHg 13%
    11:00 +37°C° 0 mm 4 m/s 617 mmHg 12%
    12:00 +38°C° 0 mm 4 m/s 617 mmHg 10%
    13:00 +38°C° 0 mm 4 m/s 617 mmHg 10%
    14:00 +40°C° 0 mm 4 m/s 617 mmHg 10%
    15:00 +40°C° 0 mm 4 m/s 617 mmHg 9%
    16:00 +40°C° 0 mm 4 m/s 617 mmHg 10%
    17:00 +38°C° 0 mm 3 m/s 617 mmHg 11%
    18:00 +38°C° 0 mm 3 m/s 616 mmHg 12%
    19:00 +36°C° 0 mm 3 m/s 616 mmHg 16%
    20:00 +35°C° 0 mm 3 m/s 616 mmHg 19%
    21:00 +33°C° 0 mm 3 m/s 616 mmHg 23%
    22:00 +31°C° 0 mm 2 m/s 616 mmHg 26%
    23:00 +30°C° 0 mm 2 m/s 616 mmHg 29%

    Depois de amanhã, 20 Julho, Sexta-feira

    Tempo Temperatura Precipitação Vento Pressão Humidade
    00:00 +29°C° 0 mm 1 m/s 615 mmHg 33%
    01:00 +28°C° 0 mm 1 m/s 615 mmHg 34%
    02:00 +27°C° 0 mm 1 m/s 615 mmHg 35%
    03:00 +27°C° 0 mm 1 m/s 614 mmHg 36%
    04:00 +27°C° 0 mm 1 m/s 615 mmHg 36%
    05:00 +27°C° 0 mm 1 m/s 615 mmHg 35%
    06:00 +28°C° 0 mm 1 m/s 615 mmHg 35%
    07:00 +30°C° 0 mm 2 m/s 616 mmHg 29%
    08:00 +33°C° 0 mm 3 m/s 617 mmHg 23%
    09:00 +34°C° 0 mm 3 m/s 617 mmHg 17%
    10:00 +36°C° 0 mm 4 m/s 617 mmHg 15%
    11:00 +37°C° 0 mm 4 m/s 617 mmHg 13%
    12:00 +40°C° 0 mm 4 m/s 618 mmHg 10%
    13:00 +40°C° 0 mm 4 m/s 617 mmHg 10%
    14:00 +41°C° 0 mm 4 m/s 617 mmHg 10%
    15:00 +41°C° 0 mm 4 m/s 617 mmHg 9%
    16:00 +40°C° 0 mm 4 m/s 616 mmHg 11%
    17:00 +40°C° 0 mm 4 m/s 616 mmHg 13%
    18:00 +38°C° 0 mm 4 m/s 616 mmHg 15%
    19:00 +36°C° 0 mm 4 m/s 616 mmHg 19%
    20:00 +35°C° 0 mm 4 m/s 616 mmHg 23%
    21:00 +33°C° 0 mm 4 m/s 616 mmHg 27%
    22:00 +31°C° 0 mm 3 m/s 615 mmHg 29%
    23:00 +30°C° 0 mm 3 m/s 615 mmHg 30%

    21 Julho, Sábado

    Tempo Temperatura Precipitação Vento Pressão Humidade
    00:00 +29°C° 0 mm 2 m/s 614 mmHg 32%
    01:00 +29°C° 0 mm 2 m/s 614 mmHg 31%
    02:00 +28°C° 0 mm 2 m/s 614 mmHg 30%
    03:00 +27°C° 0 mm 2 m/s 613 mmHg 30%
    04:00 +27°C° 0 mm 2 m/s 614 mmHg 29%
    05:00 +28°C° 0 mm 2 m/s 614 mmHg 28%
    06:00 +28°C° 0 mm 2 m/s 614 mmHg 27%
    07:00 +30°C° 0 mm 3 m/s 615 mmHg 23%
    08:00 +33°C° 0 mm 4 m/s 616 mmHg 18%
    09:00 +35°C° 0 mm 5 m/s 616 mmHg 14%
    10:00 +37°C° 0 mm 5 m/s 617 mmHg 13%
    11:00 +39°C° 0 mm 6 m/s 617 mmHg 11%
    12:00 +41°C° 0 mm 6 m/s 617 mmHg 9%
    13:00 +41°C° 0 mm 6 m/s 616 mmHg 9%
    14:00 +41°C° 0 mm 6 m/s 616 mmHg 10%
    15:00 +41°C° 0 mm 5 m/s 616 mmHg 10%
    16:00 +40°C° 0 mm 5 m/s 615 mmHg 12%
    17:00 +39°C° 0 mm 5 m/s 615 mmHg 15%
    18:00 +37°C° 0 mm 4 m/s 615 mmHg 18%
    19:00 +35°C° 0 mm 4 m/s 615 mmHg 22%
    20:00 +34°C° 0 mm 4 m/s 615 mmHg 25%
    21:00 +31°C° 0 mm 3 m/s 615 mmHg 29%
    22:00 +30°C° 0 mm 3 m/s 615 mmHg 31%
    23:00 +29°C° 0 mm 2 m/s 614 mmHg 34%

    22 Julho, Domingo

    Tempo Temperatura Precipitação Vento Pressão Humidade
    00:00 +28°C° 0 mm 2 m/s 614 mmHg 36%
    01:00 +27°C° 0 mm 2 m/s 614 mmHg 38%
    02:00 +26°C° 0 mm 2 m/s 613 mmHg 41%
    03:00 +25°C° 0 mm 2 m/s 613 mmHg 44%
    04:00 +25°C° 0 mm 2 m/s 613 mmHg 45%
    05:00 +25°C° 0 mm 2 m/s 613 mmHg 47%
    06:00 +25°C° 0 mm 2 m/s 613 mmHg 48%
    07:00 +27°C° 0 mm 3 m/s 614 mmHg 41%
    08:00 +29°C° 0 mm 3 m/s 615 mmHg 33%
    09:00 +32°C° 0 mm 4 m/s 615 mmHg 25%
    10:00 +34°C° 0 mm 4 m/s 616 mmHg 22%
    11:00 +36°C° 0 mm 5 m/s 616 mmHg 18%
    12:00 +39°C° 0 mm 6 m/s 616 mmHg 14%
    13:00 +39°C° 0 mm 6 m/s 616 mmHg 14%
    14:00 +39°C° 0 mm 6 m/s 615 mmHg 14%
    15:00 +39°C° 0 mm 6 m/s 615 mmHg 14%
    16:00 +38°C° 0 mm 6 m/s 615 mmHg 18%
    17:00 +35°C° 0 mm 5 m/s 614 mmHg 22%
    18:00 +34°C° 0 mm 5 m/s 614 mmHg 26%
    19:00 +33°C° 0 mm 4 m/s 614 mmHg 29%
    20:00 +30°C° 0 mm 4 m/s 614 mmHg 31%
    21:00 +29°C° 0 mm 3 m/s 614 mmHg 34%
    22:00 +28°C° 0 mm 3 m/s 614 mmHg 37%
    23:00 +27°C° 0 mm 3 m/s 614 mmHg 41%

    23 Julho, Segunda-feira

    Tempo Temperatura Precipitação Vento Pressão Humidade
    00:00 +26°C° 0 mm 2 m/s 613 mmHg 44%
    01:00 +25°C° 0 mm 2 m/s 613 mmHg 46%
    02:00 +24°C° 0 mm 2 m/s 613 mmHg 49%
    03:00 +23°C° 0 mm 2 m/s 612 mmHg 51%
    04:00 +23°C° 0 mm 2 m/s 613 mmHg 51%
    05:00 +23°C° 0 mm 2 m/s 613 mmHg 51%
    06:00 +23°C° 0 mm 2 m/s 613 mmHg 51%
    07:00 +25°C° 0 mm 2 m/s 614 mmHg 43%
    08:00 +28°C° 0 mm 2 m/s 614 mmHg 35%
    09:00 +30°C° 0 mm 3 m/s 615 mmHg 28%
    10:00 +33°C° 0 mm 3 m/s 615 mmHg 23%
    11:00 +35°C° 0 mm 4 m/s 616 mmHg 19%
    12:00 +37°C° 0 mm 4 m/s 616 mmHg 15%
    13:00 +37°C° 0 mm 5 m/s 616 mmHg 14%
    14:00 +39°C° 0 mm 5 m/s 616 mmHg 14%
    15:00 +39°C° 0 mm 5 m/s 615 mmHg 13%
    16:00 +37°C° 0 mm 5 m/s 615 mmHg 18%
    17:00 +36°C° 0 mm 5 m/s 615 mmHg 22%
    18:00 +34°C° 0 mm 5 m/s 614 mmHg 26%
    19:00 +33°C° 0 mm 5 m/s 614 mmHg 31%
    20:00 +30°C° 0 mm 4 m/s 614 mmHg 36%
    21:00 +28°C° 0 mm 4 m/s 614 mmHg 40%
    22:00 +28°C° 0 mm 3 m/s 614 mmHg 42%
    23:00 +27°C° 0 mm 3 m/s 614 mmHg 43%
    Mostrar mais